Regional Weather Roundup
Issued by NWS

Home | Current Version | Previous Version | Text Only | Print | Product List | Glossary On
Versions: 1 2 3 4 5 6 7 8 9 10 11 12 13 14 15 16 17 18 19 20 21 22 23 24 25 26 27 28 29 30 31 32 33 34 35 36 37 38 39 40 41 42 43 44 45 46 47 48 49 50
000
ASUS43 KDTX 080710
RWRMI
MICHIGAN HOURLY REGIONAL WEATHER ROUNDUP
NATIONAL WEATHER SERVICE DETROIT/PONTIAC MI
ISSUED BY NATIONAL WEATHER SERVICE GRAND RAPIDS MI
200 AM EST THU DEC 08 2016

NOTE: "FAIR" INDICATES FEW OR NO CLOUDS BELOW 12,000 FEET WITH NO
SIGNIFICANT WEATHER AND/OR OBSTRUCTION TO VISIBILITY.

MIZ047>049-052>055-059>063-066>070-074>076-081>083-080800-
SOUTHEAST LOWER MICHIGAN

CITY           SKY/WX    TMP DP  RH WIND       PRES   REMARKS
ADRIAN         CLOUDY    28  19  69 W15       30.05F WCI  16
ALMA           CLOUDY    28  19  71 W17G28    29.99R WCI  15
ANN ARBOR      CLOUDY    29  19  66 SW16      30.02S WCI  17
BAD AXE        CLOUDY    30  20  65 W15G25    29.93R WCI  19
DETROIT CITY   CLOUDY    31  20  63 W15       30.01S WCI  20
DETROIT        CLOUDY    30  19  63 W20G25    30.03F WCI  17
FLINT          CLOUDY    29  19  66 W17G29    29.98S WCI  17
GROSSE ILE     CLOUDY    31  21  66 W12       30.03S WCI  21
HILLSDALE      CLOUDY    27  19  74 W18G25    30.02S WCI  13
HOWELL         CLOUDY    30  20  67 W14G21    29.99S WCI  19

CITY           SKY/WX    TMP DP  RH WIND       PRES   REMARKS
JACKSON        CLOUDY    28  17  63 W17G28    30.02S WCI  16
LANSING        CLOUDY    28  18  66 W21G33    30.01S WCI  15
MASON          CLOUDY    29  21  71 W14G24    30.01R WCI  18
MONROE         CLOUDY    30  22  72 W10G17    30.04S WCI  21
MT. CLEMENS    CLOUDY    32  19  60 W15       29.97S WCI  21
PONTIAC        CLOUDY    30  19  63 W21G28    29.96F WCI  17
PORT HOPE        N/A     31  20  63 W14G22    29.89S WCI  21
PORT HURON     CLOUDY    32  21  64 SW6       29.97S WCI  26
TRI CITIES     CLOUDY    28  20  71 W21G26    29.97R WCI  15
YPSILANTI      CLOUDY    31  20  63 W18       30.02F WCI  19
$$
MIZ043>046-050>051-056>058-064>065-071>073-077>080-080800-
SOUTHWEST LOWER MICHIGAN

CITY           SKY/WX    TMP DP  RH WIND       PRES   REMARKS
BATTLE CREEK   CLOUDY    27  19  72 W15G25    30.05R WCI  15
BENTON HARBOR  CLOUDY    27  18  69 W18G24    30.11S WCI  14
BIG RAPIDS     CLOUDY    26  17  66 W18G25    29.96S WCI  13
COLDWATER      CLOUDY    27  19  72 W18       30.06S WCI  14
HOLLAND        CLOUDY    28  20  71 W16G25    30.06S WCI  16
GRAND RAPIDS   CLOUDY    27  19  72 W16G26    30.03S WCI  15
KALAMAZOO      CLOUDY    27  18  69 W18       30.06S WCI  14
MARSHALL       CLOUDY    28  19  71 W16       30.03S WCI  15
MOUNT PLEASANT CLOUDY    26  18  71 W10G20    29.97S WCI  16
MUSKEGON       CLOUDY    27  19  72 W14G24    30.05S WCI  16
STURGIS        CLOUDY    25  19  75 W13G23    30.07S WCI  14
$$
MIZ016>042-080800-
NORTHERN LOWER MICHIGAN

CITY           SKY/WX    TMP DP  RH WIND       PRES   REMARKS
ALPENA         CLOUDY    28  17  63 W9G22     29.86S WCI  19
BEAVER ISLAND  FLURRIES  26  20  78 W20G29    29.85S WCI  13
BELLAIRE       CLOUDY    28  19  70 W12G21    29.90S WCI  18
CADILLAC       CLOUDY    23  15  73 W15G23    29.90S WCI  10
CHARLEVOIX     LGT SNOW  28  21  75 SW18G26   29.89S WCI  15
GAYLORD        LGT SNOW  25  17  72 W18       29.83S WCI  11
HOUGHTON LAKE  CLOUDY    25  16  68 W15G29    29.90S WCI  13
MANISTEE       FLURRIES  25  17  72 W14G23    29.97S WCI  13
OSCODA         CLOUDY    29  17  59 MISG      29.90S
PELLSTON       FLURRIES  28  20  71 SW13G22   29.83S WCI  17
TRAVERSE CITY  CLOUDY    28  17  63 W16G23    29.92S WCI  16
LUDINGTON      CLOUDY    26  18  72 W13G20    29.99F WCI  15
$$
MIZ007>008-015-080800-
EASTERN UPPER MICHIGAN

CITY           SKY/WX    TMP DP  RH WIND       PRES   REMARKS
MACKINAC ISLAN CLOUDY    28  20  71 W21G35    29.80S WCI  15
NEWBERRY       CLOUDY    21  17  85 SW16      29.78F WCI   7
$$
MIZ004>006-011>014-085-080800-
CENTRAL UPPER MICHIGAN

CITY           SKY/WX    TMP DP  RH WIND       PRES   REMARKS
MANISTIQUE     PTCLDY    21  12  68 W8G17     29.84F WCI  11
SAWYER-GWINN   MOCLDY    19  13  77 W16       29.81S WCI   4
$$
MIZ001>003-009>011-084-080800-
WESTERN UPPER MICHIGAN

CITY           SKY/WX    TMP DP  RH WIND       PRES   REMARKS
$$

ABBREVIATIONS USED IN REMARKS
   TC - TEMPERATURE IN CELSIUS
  WCI - WIND CHILL INDEX
   HX - HEAT INDEX
  VSB - VISIBILITY





USA.gov is the U.S. government's official web portal to all federal, state and local government web resources and services.